Overview Statistics Trail Chart Weather Telemetry Raw packets
 

This is the latest recevied weather packets stored in our database for station/object IZ8XTV-13. If no packets are shown the sender has not sent any weather packets the latest 10 day(s).

<< 3 4 5 6 7 8 9 >>
Time Temp. Humidity Pressure Rain* Wind** Luminosity Snow
1777966143 16.11° C 94% 1017.8 hPa 0 mm - - -
1777965532 16.11° C 95% 1017.8 hPa 0 mm - - -
1777964921 15.56° C 97% 1017.9 hPa 0 mm - - -
1777964310 16.11° C 96% 1017.7 hPa 0 mm - - -
1777963699 16.11° C 97% 1017.8 hPa 0 mm - - -
1777963087 15.56° C 97% 1017.7 hPa 0 mm - - -
1777962474 15.56° C 97% 1017.5 hPa 0 mm - - -
1777961863 15° C 95% 1017.6 hPa 0 mm - - -
1777961251 15° C 99% 1017.7 hPa 0 mm - - -
1777960639 14.44° C 99% 1017.5 hPa 0 mm - - -
1777960026 14.44° C 99% 1017.4 hPa 0 mm - - -
1777959415 14.44° C 99% 1017.3 hPa 0 mm - - -
1777958803 13.89° C 99% 1017.2 hPa 0 mm - - -
1777958190 13.33° C 99% 1017.3 hPa 0 mm - - -
1777957577 13.33° C 99% 1017.3 hPa 0 mm - - -
1777956965 12.78° C 99% 1017.2 hPa 0 mm - - -
1777956353 12.78° C 99% 1017.3 hPa 0 mm - - -
1777955742 12.78° C 99% 1017.2 hPa 0 mm - - -
1777955130 12.78° C 99% 1017.3 hPa 0 mm - - -
1777954518 12.78° C 99% 1017.2 hPa 0 mm - - -
1777953905 12.78° C 99% 1017.1 hPa 0 mm - - -
1777953294 12.78° C 99% 1017.3 hPa 0 mm - - -
1777952680 12.22° C 99% 1017.2 hPa 0 mm - - -
1777952068 12.22° C 99% 1017.3 hPa 0 mm - - -
1777951456 12.78° C 99% 1017.3 hPa 0 mm - - -

* Rain latest hour (hover to see other rain measurements)
** Current wind speed in m/s (hover to see current wind gust speed)